Precipitable_Water
0.72 0.71 0.71 0.72 0.72 0.71 0.70 0.69 0.68 0.67 0.68 0.71 0.73 0.73 0.73 0.73 0.72 0.72 0.72 0.71 0.70 0.69 0.68 0.64 0.60 0.56 0.52 0.52 0.51 0.49 0.47 0.35 0.27 0.22 0.22 0.23 0.28 0.41 0.42 0.52 0.74 1.13 1.29 1.36 1.38 1.33 1.29 1.41 1.44 1.74 1.70 1.64 1.55 1.50 1.67 1.64 1.65 1.52 1.15 1.06 0.94 1.01 1.00 1.14 1.10 1.13 1.23 1.08 1.14 1.21 1.28 1.26 1.21 1.48 1.64 1.82 1.74 1.72 1.70 1.71 1.78 1.83 1.79 1.88 1.97 2.19 2.20 2.09
0.74 0.73 0.72 0.71 0.71 0.72 0.71 0.70 0.69 0.67 0.67 0.67 0.70 0.72 0.73 0.73 0.72 0.72 0.71 0.72 0.71 0.70 0.68 0.68 0.64 0.58 0.55 0.52 0.51 0.50 0.43 0.33 0.21 0.22 0.19 0.34 0.32 0.39 0.48 0.59 0.83 1.10 1.25 1.20 1.18 1.20 1.20 1.29 1.40 1.64 1.55 1.39 1.68 1.42 1.70 1.42 1.67 1.27 1.18 1.10 0.92 1.07 1.13 1.33 1.31 1.30 1.23 1.18 1.24 1.27 1.33 1.30 1.29 1.43 1.60 1.47 1.52 1.58 1.53 1.63 1.70 1.64 1.74 1.90 2.03 2.12 2.15 2.09
0.76 0.75 0.74 0.73 0.72 0.70 0.70 0.70 0.69 0.68 0.68 0.67 0.67 0.68 0.71 0.72 0.72 0.72 0.71 0.72 0.71 0.70 0.69 0.69 0.67 0.62 0.56 0.54 0.52 0.51 0.40 0.25 0.23 0.15 0.16 0.31 0.39 0.40 0.51 0.67 0.85 1.07 1.01 1.01 1.16 1.15 1.12 1.21 1.43 1.53 1.49 1.36 1.48 1.31 1.50 1.36 1.51 1.38 1.22 0.99 1.04 1.22 1.25 1.35 1.40 1.36 1.39 1.37 1.29 1.28 1.34 1.32 1.38 1.45 1.64 1.44 1.47 1.53 1.43 1.43 1.55 1.53 1.54 1.71 1.91 2.06 2.08 2.02
0.76 0.76 0.76 0.75 0.74 0.73 0.71 0.68 0.68 0.69 0.69 0.69 0.68 0.67 0.67 0.71 0.73 0.72 0.72 0.71 0.71 0.71 0.70 0.70 0.69 0.65 0.59 0.54 0.53 0.51 0.36 0.23 0.14 0.28 0.30 0.34 0.38 0.43 0.52 0.70 0.86 1.04 1.12 1.07 1.09 1.27 1.44 1.47 1.50 1.53 1.39 1.30 1.34 1.44 1.26 1.39 1.31 1.37 1.25 1.06 1.12 1.28 1.21 1.30 1.42 1.44 1.46 1.45 1.36 1.35 1.41 1.33 1.44 1.50 1.48 1.46 1.39 1.42 1.48 1.59 1.52 1.45 1.52 1.71 1.88 1.97 2.00 1.92
0.76 0.76 0.77 0.76 0.76 0.75 0.74 0.72 0.70 0.70 0.70 0.70 0.69 0.68 0.67 0.68 0.71 0.73 0.72 0.71 0.71 0.71 0.72 0.71 0.70 0.67 0.60 0.56 0.53 0.49 0.25 0.13 0.16 0.36 0.56 0.40 0.37 0.44 0.54 0.73 0.92 1.01 1.03 1.09 1.25 1.36 1.39 1.37 1.45 1.48 1.40 1.16 1.29 1.32 1.27 1.40 1.49 1.38 1.18 1.28 1.28 1.31 1.20 1.32 1.40 1.47 1.46 1.53 1.44 1.43 1.31 1.29 1.57 1.52 1.45 1.45 1.29 1.28 1.45 1.58 1.65 1.63 1.64 1.75 1.81 1.93 1.92 1.83
0.76 0.76 0.76 0.76 0.76 0.76 0.75 0.75 0.72 0.70 0.70 0.70 0.70 0.69 0.68 0.67 0.70 0.72 0.72 0.70 0.70 0.72 0.73 0.73 0.72 0.68 0.63 0.57 0.52 0.43 0.21 0.11 0.31 0.34 0.57 0.42 0.38 0.49 0.56 0.79 0.98 1.03 1.10 1.08 1.05 1.23 1.29 1.37 1.37 1.26 1.24 1.21 1.14 1.08 1.25 1.36 1.49 1.07 1.24 1.29 1.32 1.35 1.24 1.35 1.39 1.43 1.48 1.45 1.42 1.38 1.48 1.53 1.44 1.41 1.54 1.52 1.45 1.57 1.75 1.77 1.76 1.72 1.80 1.86 1.93 1.95 1.83 1.78
0.76 0.76 0.76 0.75 0.76 0.76 0.75 0.73 0.72 0.71 0.70 0.70 0.71 0.70 0.69 0.68 0.69 0.71 0.72 0.71 0.71 0.71 0.73 0.73 0.73 0.71 0.64 0.58 0.51 0.33 0.18 0.24 0.31 0.49 0.53 0.47 0.44 0.55 0.67 0.89 1.04 0.95 1.00 0.97 1.05 1.08 1.22 1.28 1.32 1.22 1.22 1.17 1.17 1.17 1.25 1.30 1.43 1.24 1.06 1.25 1.25 1.37 1.29 1.38 1.36 1.43 1.45 1.45 1.40 1.52 1.63 1.45 1.45 1.27 1.58 1.47 1.64 1.72 1.78 1.90 1.91 1.88 1.97 1.97 1.83 1.87 1.79 1.73
0.75 0.75 0.74 0.74 0.74 0.74 0.74 0.73 0.72 0.72 0.70 0.69 0.70 0.71 0.70 0.69 0.69 0.70 0.71 0.72 0.71 0.71 0.73 0.73 0.74 0.72 0.68 0.48 0.29 0.18 0.16 0.27 0.34 0.62 0.64 0.52 0.54 0.70 0.84 0.93 0.86 0.86 0.93 0.90 1.00 1.02 1.21 1.18 1.17 1.35 1.20 1.04 1.13 1.14 1.26 1.24 1.30 1.14 1.09 1.22 1.26 1.34 1.34 1.39 1.40 1.40 1.43 1.47 1.55 1.54 1.41 1.45 1.53 1.47 1.55 1.46 1.63 1.74 1.78 1.87 1.91 1.89 1.96 1.96 1.83 1.79 1.76 1.75
0.75 0.74 0.74 0.74 0.73 0.72 0.73 0.74 0.74 0.73 0.71 0.69 0.69 0.70 0.70 0.69 0.69 0.70 0.71 0.72 0.72 0.73 0.73 0.75 0.75 0.75 0.72 0.48 0.24 0.14 0.17 0.34 0.64 0.73 0.70 0.54 0.64 0.84 0.89 0.75 0.79 0.74 0.84 0.93 1.01 1.07 1.19 1.19 1.29 1.37 1.09 1.12 1.26 1.12 1.23 1.14 0.99 1.21 1.14 1.22 1.24 1.25 1.31 1.36 1.37 1.38 1.41 1.46 1.52 1.40 1.36 1.49 1.61 1.68 1.46 1.53 1.61 1.74 1.81 1.83 1.84 1.85 1.89 1.88 1.84 1.78 1.73 1.73
0.75 0.74 0.74 0.74 0.74 0.74 0.76 0.77 0.77 0.76 0.73 0.69 0.68 0.69 0.69 0.69 0.68 0.69 0.71 0.72 0.73 0.73 0.74 0.75 0.77 0.77 0.61 0.38 0.26 0.13 0.34 0.75 0.84 0.80 0.67 0.55 0.73 0.77 0.76 0.64 0.66 0.72 0.75 0.90 1.03 1.10 1.14 1.25 1.30 1.45 1.40 1.24 1.29 1.11 1.24 1.18 1.01 1.26 1.20 1.21 1.19 1.23 1.28 1.34 1.28 1.33 1.43 1.43 1.49 1.31 1.32 1.39 1.63 1.56 1.27 1.60 1.67 1.73 1.76 1.74 1.83 1.77 1.82 1.85 1.84 1.80 1.79 1.77
0.77 0.76 0.77 0.77 0.76 0.77 0.79 0.79 0.78 0.78 0.77 0.72 0.68 0.68 0.68 0.68 0.68 0.69 0.71 0.71 0.71 0.73 0.74 0.77 0.78 0.75 0.53 0.42 0.18 0.15 0.59 0.77 0.89 0.76 0.65 0.66 0.68 0.65 0.57 0.66 0.70 0.65 0.71 0.88 0.97 1.15 1.29 1.37 1.51 1.54 1.38 1.13 1.24 1.15 1.19 1.17 1.30 1.22 1.21 1.20 1.19 1.23 1.28 1.30 1.31 1.31 1.40 1.33 1.48 1.40 1.33 1.44 1.53 1.53 1.37 1.56 1.71 1.76 1.69 1.72 1.78 1.74 1.82 1.82 1.84 1.79 1.78 1.80
0.78 0.77 0.78 0.78 0.78 0.78 0.78 0.78 0.77 0.78 0.78 0.76 0.68 0.67 0.67 0.68 0.69 0.69 0.71 0.71 0.70 0.73 0.75 0.77 0.78 0.75 0.61 0.37 0.22 0.21 0.70 0.88 0.89 0.75 0.75 0.74 0.58 0.54 0.56 0.63 0.71 0.66 0.68 0.80 0.97 1.17 1.33 1.39 1.48 1.37 1.06 1.37 1.03 1.19 1.15 1.35 1.26 1.22 1.23 0.98 1.04 1.15 1.10 1.25 1.19 1.29 1.36 1.28 1.47 1.45 1.29 1.20 1.30 1.27 1.53 1.65 1.75 1.74 1.71 1.70 1.73 1.72 1.82 1.80 1.81 1.78 1.75 1.77
0.80 0.79 0.80 0.80 0.79 0.78 0.77 0.78 0.78 0.77 0.78 0.77 0.70 0.65 0.66 0.68 0.69 0.70 0.72 0.71 0.72 0.75 0.76 0.78 0.74 0.72 0.53 0.25 0.20 0.37 0.70 0.91 0.87 0.76 0.79 0.80 0.73 0.75 0.71 0.73 0.73 0.74 0.72 0.73 0.95 1.18 1.33 1.37 1.39 1.22 1.26 1.12 1.05 0.95 1.22 1.32 1.22 1.23 1.16 1.04 0.95 0.98 0.95 1.15 1.31 1.34 1.29 1.33 1.47 1.40 0.84 1.00 1.24 1.45 1.60 1.70 1.70 1.71 1.67 1.66 1.67 1.66 1.79 1.80 1.74 1.69 1.71 1.78
0.82 0.80 0.81 0.81 0.80 0.78 0.77 0.78 0.80 0.79 0.77 0.76 0.71 0.65 0.64 0.66 0.69 0.70 0.71 0.72 0.76 0.78 0.81 0.81 0.78 0.66 0.45 0.24 0.24 0.42 0.64 0.75 0.85 0.71 0.67 0.71 0.63 0.60 0.66 0.76 0.87 0.84 0.83 0.75 0.92 1.20 1.31 1.39 1.36 1.24 1.26 1.07 0.96 1.32 1.14 1.13 1.18 0.94 1.02 1.08 0.86 0.82 0.80 1.13 1.21 1.29 1.17 1.39 1.41 1.38 0.85 0.97 1.21 1.44 1.64 1.71 1.73 1.65 1.58 1.63 1.68 1.65 1.69 1.74 1.71 1.66 1.65 1.70
0.84 0.83 0.83 0.83 0.80 0.78 0.77 0.78 0.79 0.79 0.78 0.76 0.71 0.64 0.63 0.64 0.66 0.69 0.71 0.73 0.80 0.83 0.83 0.84 0.77 0.55 0.37 0.29 0.33 0.52 0.65 0.67 0.67 0.62 0.66 0.59 0.59 0.54 0.55 0.69 0.78 0.83 0.81 0.75 0.82 1.11 1.25 1.32 1.25 1.07 0.97 1.20 1.20 1.10 0.97 0.96 0.99 0.98 0.83 0.70 0.85 0.78 0.81 1.03 1.24 1.25 1.07 1.28 1.42 1.26 0.89 0.97 1.19 1.41 1.61 1.73 1.71 1.66 1.57 1.63 1.66 1.61 1.67 1.70 1.69 1.66 1.66 1.65
0.86 0.85 0.85 0.83 0.81 0.79 0.77 0.78 0.78 0.79 0.77 0.74 0.68 0.64 0.63 0.63 0.64 0.67 0.72 0.74 0.78 0.83 0.85 0.67 0.63 0.54 0.36 0.24 0.25 0.50 0.64 0.49 0.53 0.60 0.68 0.66 0.66 0.56 0.62 0.67 0.74 0.77 0.78 0.70 0.78 1.01 1.14 1.16 1.00 1.04 1.03 1.08 1.00 0.95 0.88 0.84 0.82 0.90 0.79 0.69 0.70 0.79 0.79 0.87 1.17 1.27 1.30 1.25 1.32 1.18 0.89 1.06 1.17 1.43 1.60 1.75 1.68 1.65 1.59 1.61 1.62 1.59 1.65 1.68 1.66 1.68 1.65 1.63
0.88 0.88 0.86 0.83 0.81 0.79 0.78 0.77 0.78 0.78 0.74 0.72 0.65 0.63 0.63 0.63 0.65 0.67 0.74 0.77 0.77 0.85 0.77 0.58 0.65 0.61 0.28 0.41 0.45 0.25 0.37 0.54 0.63 0.50 0.60 0.73 0.69 0.66 0.63 0.65 0.63 0.66 0.74 0.70 0.66 0.82 1.00 1.00 1.05 1.01 1.03 0.91 0.99 0.96 0.75 0.66 0.65 0.70 0.82 0.70 0.76 0.72 0.77 0.74 1.01 1.24 1.30 1.24 1.06 1.21 1.03 1.06 1.24 1.42 1.57 1.70 1.71 1.65 1.57 1.59 1.61 1.59 1.63 1.66 1.66 1.67 1.62 1.60
0.88 0.89 0.87 0.83 0.82 0.81 0.78 0.77 0.78 0.75 0.73 0.68 0.63 0.61 0.59 0.63 0.68 0.71 0.71 0.75 0.78 0.77 0.77 0.82 0.71 0.48 0.30 0.39 0.23 0.21 0.39 0.52 0.55 0.49 0.50 0.72 0.75 0.69 0.67 0.61 0.64 0.63 0.64 0.60 0.63 0.62 0.85 0.88 1.00 0.80 0.87 0.88 0.93 0.86 0.69 0.53 0.59 0.61 0.65 0.67 0.68 0.76 0.80 0.76 0.79 1.05 1.18 1.22 1.06 1.09 1.05 1.06 1.25 1.42 1.52 1.63 1.71 1.66 1.60 1.59 1.61 1.58 1.61 1.66 1.65 1.61 1.60 1.58
0.87 0.89 0.87 0.84 0.82 0.81 0.79 0.77 0.76 0.75 0.71 0.67 0.67 0.67 0.67 0.70 0.72 0.71 0.59 0.64 0.50 0.41 0.35 0.39 0.39 0.24 0.19 0.28 0.30 0.32 0.35 0.47 0.56 0.48 0.45 0.54 0.68 0.72 0.72 0.73 0.65 0.54 0.48 0.49 0.54 0.58 0.76 0.82 0.92 0.78 0.63 0.76 0.79 0.82 0.76 0.73 0.76 0.71 0.72 0.71 0.72 0.67 0.69 0.73 0.88 1.10 1.14 1.05 1.01 1.03 0.92 1.00 1.19 1.36 1.49 1.62 1.69 1.65 1.65 1.65 1.62 1.60 1.64 1.66 1.62 1.58 1.57 1.55
0.87 0.88 0.87 0.84 0.82 0.81 0.80 0.76 0.75 0.73 0.70 0.66 0.65 0.63 0.58 0.43 0.41 0.38 0.55 0.55 0.42 0.41 0.42 0.47 0.44 0.40 0.32 0.35 0.32 0.41 0.45 0.46 0.37 0.44 0.51 0.57 0.58 0.60 0.63 0.63 0.54 0.51 0.44 0.41 0.54 0.55 0.77 0.67 0.65 0.57 0.62 0.75 0.83 0.88 0.86 0.87 0.86 0.82 0.79 0.75 0.71 0.72 0.73 0.85 0.92 1.07 1.20 1.05 1.01 1.03 1.03 1.04 1.15 1.33 1.48 1.57 1.68 1.64 1.63 1.59 1.57 1.57 1.62 1.60 1.57 1.55 1.57 1.55
0.87 0.88 0.86 0.84 0.82 0.81 0.79 0.75 0.74 0.73 0.71 0.67 0.62 0.51 0.35 0.35 0.27 0.25 0.40 0.42 0.47 0.49 0.47 0.47 0.46 0.38 0.34 0.39 0.42 0.40 0.33 0.34 0.43 0.43 0.45 0.60 0.56 0.57 0.50 0.52 0.43 0.35 0.39 0.47 0.54 0.69 0.68 0.63 0.62 0.67 0.73 0.80 0.85 0.88 0.88 0.85 0.84 0.78 0.74 0.71 0.68 0.71 0.66 0.80 0.86 1.07 1.17 1.01 0.97 1.09 1.02 1.02 1.12 1.32 1.44 1.58 1.59 1.53 1.56 1.56 1.55 1.54 1.61 1.60 1.57 1.56 1.57 1.59
0.86 0.87 0.85 0.83 0.81 0.80 0.79 0.75 0.75 0.74 0.71 0.64 0.56 0.43 0.45 0.50 0.57 0.63 0.51 0.33 0.44 0.50 0.51 0.50 0.52 0.41 0.47 0.46 0.49 0.48 0.42 0.32 0.33 0.45 0.58 0.59 0.56 0.42 0.46 0.45 0.35 0.30 0.39 0.48 0.62 0.60 0.52 0.51 0.61 0.75 0.83 0.90 0.89 0.87 0.87 0.81 0.75 0.76 0.70 0.69 0.67 0.65 0.76 0.85 0.92 1.06 1.12 1.04 0.95 1.07 0.96 0.98 1.11 1.26 1.45 1.50 1.54 1.62 1.66 1.62 1.58 1.57 1.57 1.57 1.56 1.56 1.59 1.60
0.85 0.86 0.84 0.82 0.80 0.80 0.79 0.78 0.76 0.74 0.67 0.56 0.45 0.47 0.47 0.59 0.68 0.72 0.64 0.51 0.41 0.52 0.49 0.48 0.42 0.39 0.40 0.49 0.52 0.53 0.34 0.28 0.26 0.41 0.51 0.59 0.50 0.45 0.48 0.41 0.34 0.36 0.39 0.48 0.50 0.51 0.47 0.60 0.70 0.80 0.86 0.82 0.82 0.84 0.81 0.77 0.77 0.70 0.68 0.64 0.59 0.67 0.66 0.60 0.84 0.97 1.04 1.01 0.95 1.03 0.94 0.98 1.12 1.25 1.39 1.55 1.60 1.65 1.70 1.69 1.65 1.67 1.59 1.56 1.53 1.55 1.53 1.55
0.85 0.85 0.83 0.82 0.80 0.79 0.81 0.80 0.78 0.71 0.63 0.59 0.53 0.53 0.65 0.71 0.71 0.70 0.55 0.41 0.37 0.44 0.49 0.48 0.45 0.42 0.41 0.38 0.50 0.44 0.33 0.31 0.33 0.33 0.61 0.55 0.42 0.55 0.50 0.46 0.34 0.36 0.36 0.46 0.53 0.47 0.45 0.66 0.82 0.84 0.83 0.81 0.74 0.76 0.73 0.70 0.64 0.69 0.67 0.64 0.63 0.64 0.68 0.69 0.73 0.91 1.00 1.07 1.11 1.04 0.93 0.90 1.03 1.05 1.23 1.44 1.62 1.61 1.63 1.63 1.63 1.67 1.69 1.68 1.66 1.62 1.60 1.55
0.84 0.84 0.83 0.83 0.79 0.80 0.80 0.81 0.68 0.62 0.67 0.61 0.56 0.67 0.73 0.74 0.75 0.72 0.54 0.41 0.40 0.40 0.58 0.50 0.52 0.46 0.48 0.60 0.55 0.38 0.35 0.38 0.35 0.42 0.57 0.59 0.47 0.53 0.47 0.58 0.42 0.35 0.41 0.51 0.58 0.54 0.59 0.75 0.88 0.81 0.81 0.79 0.75 0.69 0.70 0.70 0.60 0.60 0.64 0.65 0.64 0.68 0.68 0.75 0.83 0.82 0.78 0.80 1.01 0.95 0.72 0.73 0.95 1.04 1.15 1.32 1.42 1.46 1.56 1.52 1.53 1.57 1.61 1.64 1.58 1.55 1.58 1.62
0.83 0.83 0.82 0.83 0.81 0.78 0.81 0.64 0.61 0.68 0.60 0.51 0.58 0.69 0.74 0.77 0.77 0.74 0.55 0.33 0.25 0.36 0.45 0.33 0.55 0.37 0.60 0.45 0.50 0.47 0.41 0.30 0.36 0.43 0.53 0.65 0.73 0.58 0.56 0.50 0.50 0.37 0.49 0.58 0.59 0.60 0.62 0.78 0.81 0.76 0.74 0.73 0.71 0.68 0.70 0.71 0.59 0.55 0.53 0.68 0.67 0.68 0.69 0.74 0.75 0.76 0.64 0.62 0.88 1.05 0.71 0.64 0.94 0.94 1.08 1.22 1.29 1.38 1.47 1.49 1.52 1.53 1.55 1.57 1.53 1.53 1.52 1.50
0.82 0.82 0.82 0.83 0.81 0.78 0.61 0.52 0.72 0.67 0.51 0.49 0.68 0.71 0.76 0.79 0.79 0.71 0.44 0.26 0.23 0.36 0.32 0.42 0.42 0.46 0.57 0.51 0.50 0.50 0.23 0.27 0.43 0.50 0.51 0.70 0.65 0.82 0.51 0.50 0.52 0.64 0.70 0.74 0.63 0.48 0.67 0.67 0.73 0.74 0.70 0.66 0.64 0.60 0.65 0.66 0.57 0.50 0.60 0.64 0.66 0.67 0.67 0.71 0.73 0.74 0.72 0.90 0.98 1.00 0.90 0.70 0.70 0.89 1.09 1.19 1.23 1.31 1.33 1.39 1.47 1.49 1.51 1.52 1.52 1.50 1.46 1.40
0.81 0.82 0.82 0.84 0.81 0.75 0.58 0.64 0.63 0.56 0.54 0.63 0.74 0.76 0.78 0.80 0.81 0.71 0.43 0.18 0.19 0.42 0.32 0.37 0.43 0.53 0.54 0.51 0.56 0.42 0.41 0.53 0.31 0.44 0.53 0.66 0.79 0.72 0.66 0.58 0.50 0.56 0.67 0.67 0.37 0.54 0.63 0.59 0.64 0.61 0.64 0.61 0.59 0.62 0.64 0.66 0.56 0.52 0.61 0.65 0.63 0.68 0.71 0.75 0.72 0.71 0.78 0.76 0.67 0.84 0.95 0.73 0.70 0.90 1.11 1.12 1.06 1.19 1.26 1.32 1.37 1.43 1.47 1.46 1.43 1.39 1.37 1.32
0.80 0.82 0.82 0.83 0.82 0.76 0.73 0.65 0.63 0.54 0.67 0.76 0.77 0.79 0.83 0.81 0.73 0.53 0.34 0.18 0.35 0.39 0.46 0.36 0.54 0.46 0.44 0.48 0.49 0.52 0.37 0.55 0.39 0.48 0.60 0.65 0.77 0.79 0.56 0.67 0.67 0.68 0.75 0.65 0.44 0.54 0.64 0.62 0.65 0.66 0.63 0.58 0.65 0.67 0.66 0.65 0.53 0.59 0.69 0.73 0.75 0.78 0.78 0.75 0.69 0.68 0.72 0.68 0.58 0.72 0.87 0.65 0.66 0.87 0.95 1.06 1.02 1.06 1.15 1.26 1.32 1.37 1.44 1.43 1.33 1.30 1.26 1.23
0.79 0.81 0.82 0.83 0.79 0.71 0.66 0.71 0.65 0.71 0.79 0.84 0.83 0.86 0.84 0.74 0.56 0.36 0.27 0.17 0.40 0.26 0.36 0.41 0.41 0.36 0.40 0.37 0.42 0.48 0.36 0.49 0.52 0.60 0.60 0.52 0.62 0.78 0.75 0.87 0.74 0.67 0.63 0.65 0.55 0.56 0.67 0.76 0.77 0.67 0.62 0.67 0.67 0.68 0.67 0.63 0.61 0.72 0.73 0.68 0.70 0.74 0.73 0.74 0.71 0.68 0.64 0.52 0.60 0.73 0.82 0.76 0.59 0.76 0.86 0.86 0.89 1.01 1.10 1.21 1.31 1.36 1.39 1.40 1.32 1.23 1.18 1.19
0.78 0.81 0.82 0.82 0.67 0.67 0.68 0.56 0.66 0.80 0.85 0.85 0.85 0.81 0.71 0.58 0.40 0.30 0.19 0.28 0.42 0.34 0.37 0.37 0.35 0.38 0.36 0.35 0.34 0.41 0.41 0.45 0.46 0.57 0.50 0.60 0.60 0.68 0.70 0.62 0.77 0.67 0.62 0.58 0.49 0.53 0.59 0.63 0.62 0.66 0.74 0.73 0.71 0.63 0.65 0.65 0.65 0.66 0.64 0.63 0.61 0.60 0.68 0.61 0.59 0.65 0.46 0.43 0.62 0.76 0.79 0.83 0.58 0.67 0.89 0.95 1.02 1.08 1.09 1.11 1.18 1.27 1.30 1.21 1.21 1.21 1.19 1.21
0.76 0.79 0.82 0.78 0.77 0.79 0.58 0.59 0.77 0.86 0.84 0.84 0.78 0.68 0.54 0.36 0.41 0.26 0.24 0.46 0.28 0.33 0.33 0.33 0.35 0.33 0.34 0.38 0.41 0.37 0.36 0.41 0.43 0.49 0.49 0.48 0.53 0.52 0.58 0.50 0.56 0.42 0.38 0.42 0.35 0.48 0.45 0.50 0.60 0.66 0.75 0.70 0.64 0.56 0.56 0.59 0.65 0.61 0.61 0.60 0.44 0.41 0.40 0.34 0.43 0.35 0.40 0.40 0.61 0.76 0.82 0.72 0.70 0.73 0.85 0.93 0.99 1.06 1.15 1.18 1.21 1.25 1.25 1.20 1.15 1.13 1.17 1.21
0.77 0.79 0.82 0.83 0.82 0.73 0.72 0.79 0.84 0.83 0.82 0.80 0.73 0.64 0.47 0.32 0.23 0.35 0.34 0.38 0.30 0.38 0.33 0.38 0.33 0.28 0.29 0.31 0.33 0.36 0.36 0.32 0.37 0.45 0.50 0.54 0.49 0.47 0.56 0.54 0.59 0.48 0.32 0.39 0.34 0.36 0.36 0.50 0.53 0.57 0.62 0.64 0.61 0.47 0.48 0.45 0.55 0.58 0.53 0.51 0.41 0.31 0.31 0.26 0.32 0.40 0.41 0.52 0.72 0.72 0.86 0.66 0.73 0.77 0.88 0.90 0.98 1.06 1.14 1.22 1.29 1.30 1.25 1.13 1.04 1.10 1.14 1.18
0.78 0.80 0.77 0.82 0.81 0.75 0.78 0.81 0.78 0.80 0.78 0.78 0.68 0.53 0.44 0.27 0.26 0.47 0.38 0.38 0.37 0.41 0.37 0.35 0.35 0.30 0.25 0.23 0.26 0.29 0.26 0.30 0.30 0.32 0.43 0.46 0.47 0.43 0.47 0.54 0.57 0.49 0.44 0.43 0.31 0.33 0.25 0.28 0.39 0.48 0.45 0.59 0.56 0.54 0.54 0.49 0.49 0.51 0.59 0.52 0.44 0.36 0.31 0.25 0.31 0.27 0.33 0.41 0.60 0.82 0.69 0.60 0.56 0.65 0.85 0.92 1.00 1.08 1.17 1.24 1.32 1.34 1.21 1.06 1.01 1.06 1.11 1.13
0.80 0.82 0.85 0.82 0.82 0.78 0.78 0.79 0.76 0.79 0.78 0.68 0.55 0.44 0.30 0.28 0.36 0.34 0.36 0.39 0.41 0.40 0.34 0.36 0.34 0.28 0.21 0.22 0.24 0.25 0.25 0.23 0.26 0.30 0.32 0.35 0.36 0.39 0.41 0.42 0.51 0.52 0.49 0.34 0.37 0.35 0.29 0.31 0.44 0.52 0.54 0.56 0.51 0.55 0.57 0.50 0.46 0.51 0.56 0.58 0.43 0.38 0.47 0.33 0.37 0.38 0.41 0.46 0.49 0.62 0.57 0.68 0.67 0.83 0.90 0.99 1.00 1.05 1.14 1.21 1.27 1.23 1.16 1.06 0.99 1.01 1.05 1.09
0.79 0.80 0.88 0.75 0.74 0.76 0.80 0.76 0.76 0.75 0.72 0.57 0.42 0.34 0.31 0.36 0.34 0.44 0.40 0.50 0.44 0.37 0.34 0.31 0.30 0.24 0.21 0.19 0.21 0.22 0.25 0.22 0.23 0.27 0.30 0.32 0.38 0.37 0.44 0.47 0.45 0.46 0.42 0.31 0.36 0.26 0.27 0.23 0.40 0.45 0.53 0.53 0.53 0.53 0.50 0.50 0.32 0.44 0.45 0.39 0.46 0.54 0.47 0.43 0.44 0.52 0.52 0.49 0.43 0.60 0.60 0.67 0.77 0.81 0.90 0.96 0.93 1.00 1.09 1.15 1.17 1.10 1.06 1.00 0.94 0.96 1.02 1.05
0.70 0.82 0.74 0.78 0.75 0.80 0.76 0.76 0.74 0.71 0.60 0.48 0.37 0.31 0.39 0.41 0.50 0.48 0.52 0.44 0.42 0.40 0.35 0.27 0.27 0.24 0.21 0.19 0.19 0.20 0.21 0.23 0.22 0.23 0.23 0.35 0.33 0.37 0.39 0.42 0.51 0.50 0.47 0.42 0.35 0.38 0.25 0.21 0.36 0.41 0.40 0.49 0.53 0.51 0.50 0.49 0.44 0.40 0.33 0.43 0.58 0.61 0.57 0.43 0.32 0.41 0.42 0.36 0.40 0.54 0.52 0.57 0.60 0.56 0.85 0.90 0.88 0.95 1.03 1.07 1.08 1.04 1.01 0.96 0.93 0.93 0.95 0.98
0.67 0.75 0.78 0.75 0.79 0.81 0.76 0.76 0.72 0.60 0.50 0.37 0.32 0.34 0.46 0.42 0.54 0.52 0.54 0.49 0.44 0.41 0.32 0.29 0.30 0.30 0.25 0.22 0.19 0.20 0.23 0.20 0.21 0.22 0.22 0.34 0.30 0.42 0.36 0.37 0.44 0.47 0.51 0.52 0.37 0.40 0.36 0.22 0.29 0.37 0.40 0.44 0.46 0.46 0.43 0.46 0.47 0.37 0.36 0.51 0.38 0.37 0.34 0.45 0.41 0.32 0.32 0.32 0.36 0.46 0.55 0.58 0.61 0.62 0.75 0.81 0.85 0.90 0.99 1.05 1.02 0.99 0.96 0.92 0.93 0.94 0.94 0.98
0.69 0.72 0.59 0.75 0.85 0.76 0.75 0.77 0.67 0.53 0.40 0.33 0.31 0.33 0.46 0.50 0.56 0.54 0.54 0.52 0.48 0.41 0.32 0.33 0.32 0.33 0.32 0.28 0.28 0.26 0.24 0.21 0.22 0.21 0.19 0.27 0.26 0.38 0.37 0.38 0.38 0.46 0.50 0.57 0.46 0.41 0.38 0.25 0.25 0.36 0.38 0.41 0.42 0.41 0.33 0.33 0.43 0.44 0.49 0.45 0.53 0.44 0.45 0.42 0.44 0.46 0.40 0.32 0.33 0.37 0.46 0.49 0.65 0.69 0.76 0.79 0.89 0.93 0.98 1.04 0.98 0.95 0.91 0.91 0.93 0.97 0.96 0.97
0.60 0.55 0.53 0.82 0.80 0.76 0.77 0.72 0.55 0.46 0.37 0.32 0.36 0.41 0.52 0.47 0.53 0.56 0.56 0.53 0.45 0.43 0.36 0.36 0.37 0.35 0.36 0.34 0.33 0.30 0.30 0.27 0.25 0.22 0.22 0.27 0.28 0.37 0.35 0.44 0.37 0.40 0.46 0.50 0.46 0.49 0.37 0.36 0.24 0.33 0.42 0.42 0.35 0.36 0.32 0.33 0.31 0.36 0.39 0.41 0.45 0.45 0.59 0.56 0.54 0.43 0.37 0.33 0.33 0.33 0.35 0.50 0.65 0.77 0.78 0.83 0.91 0.96 0.98 1.01 1.01 0.93 0.92 0.93 0.97 0.98 0.98 0.98
0.67 0.58 0.57 0.84 0.77 0.76 0.74 0.62 0.49 0.44 0.40 0.43 0.46 0.45 0.50 0.47 0.53 0.54 0.57 0.57 0.52 0.52 0.44 0.41 0.40 0.39 0.40 0.39 0.38 0.40 0.35 0.33 0.29 0.25 0.24 0.25 0.28 0.25 0.33 0.35 0.39 0.36 0.43 0.45 0.42 0.44 0.37 0.34 0.29 0.35 0.36 0.36 0.37 0.39 0.38 0.37 0.36 0.34 0.34 0.36 0.42 0.40 0.41 0.35 0.33 0.50 0.46 0.36 0.34 0.32 0.34 0.49 0.67 0.81 0.83 0.87 0.96 0.99 1.03 1.03 1.04 1.00 0.97 0.98 1.03 1.05 1.04 1.02
0.55 0.43 0.54 0.82 0.80 0.76 0.63 0.48 0.48 0.54 0.47 0.41 0.41 0.48 0.48 0.59 0.52 0.51 0.52 0.55 0.52 0.49 0.51 0.44 0.43 0.44 0.42 0.41 0.42 0.42 0.39 0.34 0.32 0.28 0.27 0.25 0.28 0.28 0.27 0.31 0.34 0.37 0.33 0.32 0.29 0.38 0.40 0.39 0.36 0.33 0.36 0.36 0.38 0.39 0.42 0.40 0.39 0.37 0.36 0.36 0.40 0.43 0.44 0.38 0.28 0.36 0.42 0.41 0.46 0.44 0.36 0.46 0.71 0.82 0.85 0.88 0.96 1.02 1.02 1.04 1.04 1.02 1.02 1.04 1.04 1.04 1.08 1.10
0.53 0.52 0.75 0.82 0.83 0.73 0.58 0.46 0.53 0.49 0.45 0.50 0.57 0.54 0.57 0.53 0.51 0.52 0.49 0.51 0.47 0.48 0.45 0.43 0.42 0.42 0.44 0.43 0.44 0.45 0.40 0.30 0.29 0.28 0.29 0.28 0.28 0.29 0.30 0.30 0.32 0.33 0.34 0.34 0.38 0.41 0.43 0.35 0.32 0.35 0.38 0.39 0.40 0.40 0.39 0.39 0.38 0.35 0.35 0.38 0.38 0.34 0.37 0.36 0.35 0.39 0.33 0.38 0.35 0.38 0.34 0.44 0.68 0.82 0.86 0.90 0.95 1.03 1.07 1.03 1.03 1.05 1.06 1.04 1.04 1.03 1.06 1.11
0.57 0.57 0.63 0.78 0.83 0.75 0.54 0.38 0.40 0.44 0.46 0.53 0.52 0.51 0.57 0.53 0.52 0.49 0.48 0.48 0.46 0.44 0.41 0.40 0.42 0.44 0.43 0.49 0.48 0.45 0.44 0.31 0.36 0.34 0.33 0.44 0.39 0.49 0.45 0.38 0.34 0.30 0.29 0.29 0.27 0.40 0.30 0.34 0.33 0.30 0.29 0.31 0.31 0.33 0.33 0.36 0.35 0.32 0.31 0.34 0.36 0.38 0.39 0.41 0.42 0.45 0.32 0.36 0.37 0.34 0.28 0.37 0.62 0.79 0.84 0.88 0.94 0.96 0.99 1.05 1.06 1.06 1.06 1.07 1.04 1.05 1.06 1.08
0.61 0.66 0.66 0.70 0.77 0.71 0.49 0.52 0.48 0.45 0.46 0.46 0.47 0.44 0.47 0.51 0.57 0.55 0.51 0.47 0.51 0.49 0.45 0.42 0.46 0.47 0.45 0.50 0.49 0.52 0.52 0.46 0.42 0.50 0.51 0.49 0.48 0.53 0.52 0.46 0.44 0.36 0.36 0.35 0.35 0.41 0.30 0.34 0.31 0.27 0.24 0.22 0.21 0.22 0.24 0.27 0.29 0.31 0.32 0.31 0.34 0.34 0.36 0.35 0.31 0.36 0.27 0.37 0.39 0.36 0.33 0.44 0.59 0.71 0.77 0.82 0.90 0.93 0.98 1.04 1.10 1.10 1.12 1.08 1.08 1.07 1.08 1.09
0.52 0.41 0.56 0.61 0.66 0.64 0.62 0.66 0.59 0.51 0.47 0.47 0.44 0.48 0.49 0.44 0.52 0.58 0.55 0.51 0.54 0.51 0.49 0.50 0.52 0.53 0.49 0.48 0.45 0.46 0.48 0.52 0.47 0.44 0.48 0.46 0.48 0.50 0.51 0.50 0.44 0.34 0.37 0.36 0.37 0.36 0.31 0.35 0.35 0.32 0.29 0.26 0.26 0.28 0.32 0.35 0.31 0.28 0.28 0.28 0.33 0.39 0.41 0.38 0.37 0.33 0.28 0.36 0.36 0.38 0.40 0.43 0.50 0.61 0.69 0.76 0.84 0.89 0.94 1.02 1.05 1.08 1.12 1.17 1.15 1.12 1.10 1.09
0.64 0.47 0.50 0.45 0.58 0.56 0.55 0.59 0.55 0.54 0.47 0.54 0.42 0.49 0.44 0.44 0.50 0.52 0.59 0.47 0.54 0.52 0.52 0.48 0.49 0.46 0.48 0.47 0.45 0.45 0.48 0.47 0.48 0.48 0.46 0.46 0.49 0.51 0.53 0.50 0.48 0.52 0.40 0.37 0.38 0.34 0.31 0.29 0.31 0.33 0.33 0.31 0.32 0.30 0.31 0.33 0.29 0.29 0.27 0.27 0.32 0.40 0.41 0.37 0.32 0.30 0.40 0.35 0.30 0.42 0.48 0.43 0.45 0.56 0.65 0.73 0.81 0.87 0.95 1.02 1.07 1.09 1.11 1.13 1.17 1.17 1.18 1.16
0.47 0.57 0.61 0.66 0.50 0.44 0.44 0.47 0.55 0.51 0.55 0.56 0.49 0.54 0.47 0.44 0.44 0.44 0.53 0.54 0.56 0.56 0.49 0.50 0.49 0.49 0.51 0.47 0.48 0.42 0.46 0.44 0.45 0.41 0.48 0.48 0.46 0.48 0.46 0.48 0.44 0.47 0.53 0.37 0.38 0.32 0.28 0.26 0.31 0.33 0.33 0.35 0.35 0.32 0.31 0.30 0.30 0.29 0.29 0.28 0.27 0.38 0.43 0.38 0.37 0.40 0.43 0.37 0.32 0.37 0.40 0.38 0.43 0.51 0.61 0.72 0.81 0.84 0.89 0.97 1.10 1.14 1.15 1.16 1.18 1.19 1.18 1.18
0.59 0.61 0.60 0.73 0.52 0.56 0.52 0.54 0.57 0.54 0.51 0.54 0.51 0.51 0.46 0.45 0.43 0.49 0.50 0.49 0.49 0.51 0.51 0.43 0.45 0.49 0.50 0.53 0.49 0.44 0.45 0.39 0.40 0.45 0.44 0.45 0.43 0.45 0.41 0.42 0.45 0.48 0.44 0.40 0.36 0.35 0.29 0.27 0.30 0.32 0.32 0.32 0.33 0.31 0.31 0.33 0.34 0.34 0.32 0.32 0.32 0.30 0.38 0.42 0.45 0.48 0.44 0.37 0.37 0.38 0.39 0.39 0.44 0.50 0.59 0.69 0.81 0.87 0.94 1.02 1.12 1.12 1.09 1.11 1.14 1.17 1.18 1.20
0.47 0.47 0.47 0.64 0.62 0.59 0.60 0.56 0.54 0.53 0.47 0.53 0.45 0.49 0.49 0.47 0.44 0.48 0.52 0.50 0.45 0.47 0.54 0.46 0.48 0.51 0.52 0.52 0.51 0.46 0.49 0.49 0.48 0.43 0.49 0.47 0.45 0.46 0.43 0.44 0.42 0.46 0.47 0.40 0.37 0.37 0.29 0.26 0.35 0.30 0.28 0.28 0.29 0.30 0.33 0.37 0.36 0.32 0.36 0.35 0.33 0.33 0.30 0.33 0.34 0.37 0.39 0.36 0.34 0.33 0.34 0.35 0.45 0.57 0.62 0.71 0.81 0.90 0.93 0.93 1.00 1.05 1.03 1.04 1.06 1.10 1.16 1.20
0.65 0.70 0.67 0.52 0.47 0.55 0.59 0.56 0.52 0.49 0.47 0.51 0.47 0.51 0.50 0.50 0.49 0.52 0.50 0.58 0.52 0.50 0.52 0.48 0.50 0.51 0.53 0.52 0.52 0.51 0.56 0.56 0.56 0.54 0.54 0.51 0.44 0.51 0.44 0.45 0.49 0.42 0.44 0.42 0.42 0.39 0.31 0.28 0.30 0.28 0.24 0.24 0.27 0.29 0.31 0.36 0.36 0.35 0.35 0.37 0.36 0.32 0.29 0.34 0.34 0.44 0.37 0.32 0.32 0.34 0.34 0.35 0.45 0.57 0.64 0.69 0.74 0.81 0.85 0.91 0.95 1.02 1.02 0.99 1.00 1.05 1.09 1.15
0.74 0.79 0.76 0.60 0.43 0.56 0.50 0.54 0.55 0.50 0.44 0.53 0.54 0.54 0.51 0.51 0.56 0.56 0.47 0.57 0.60 0.59 0.59 0.56 0.53 0.50 0.49 0.50 0.50 0.54 0.59 0.60 0.60 0.62 0.62 0.60 0.58 0.57 0.55 0.53 0.51 0.45 0.43 0.41 0.44 0.38 0.32 0.28 0.25 0.25 0.23 0.23 0.28 0.30 0.28 0.31 0.29 0.29 0.35 0.41 0.43 0.41 0.43 0.45 0.50 0.53 0.51 0.46 0.33 0.30 0.30 0.41 0.49 0.57 0.59 0.64 0.70 0.76 0.82 0.89 0.94 0.99 1.00 0.99 1.00 1.03 1.06 1.09
Wind_Speed
14 14 15 15 15 15 16 16 16 16 16 16 16 16 16 16 16 15 16 15 15 15 15 15 14 14 14 13 13 12 12 11 11 10 10 11 10 8 9 10 11 11 9 7 7 7 6 5 5 4 3 2 2 3 3 3 3 3 3 3 4 3 3 3 2 3 3 4 4 5 6 5 6 6 5 5 5 6 7 7 7 7 6 7 9 12 15 18
15 15 15 15 16 16 16 16 16 17 17 17 17 16 16 16 16 16 16 15 15 15 15 15 14 14 13 13 12 12 11 11 11 12 12 11 9 9 10 11 12 12 10 9 9 8 7 7 6 5 3 2 2 3 3 3 3 3 4 4 4 3 3 3 3 3 3 4 4 4 6 6 7 7 7 6 6 7 7 7 8 7 7 8 10 14 17 19
15 15 16 16 16 16 16 17 17 17 17 17 17 17 17 17 17 16 16 16 15 15 15 15 14 14 13 13 12 11 11 11 11 11 11 11 10 11 11 13 13 13 11 10 10 9 8 8 8 6 3 1 2 2 3 3 3 3 4 4 5 4 4 5 5 5 5 6 4 5 6 6 7 7 8 7 7 8 8 9 9 8 9 10 12 15 18 20
16 17 17 17 17 17 17 17 18 18 18 18 18 18 18 17 17 17 17 16 16 16 15 15 15 14 13 13 12 11 10 10 10 9 8 10 12 12 13 14 14 13 12 10 9 9 7 7 8 6 4 1 1 2 2 2 3 4 3 4 5 5 5 6 6 6 7 6 6 5 6 7 8 8 9 9 8 9 9 11 11 10 11 12 14 17 20 21
18 18 18 18 18 18 18 18 19 19 19 19 19 19 18 18 18 17 17 17 16 16 16 15 15 15 14 13 12 10 9 8 8 9 8 10 12 13 14 14 15 14 11 10 9 9 7 8 8 5 3 1 0 1 2 1 2 4 4 5 6 5 5 7 7 7 7 6 6 6 6 7 7 8 10 11 10 9 10 12 12 11 12 14 17 19 21 21
18 18 19 19 19 20 20 20 20 20 20 20 19 19 19 19 18 18 17 17 17 16 16 16 15 15 14 13 11 10 9 8 8 8 8 11 12 13 14 15 15 13 11 10 10 9 8 9 8 5 3 1 1 1 2 1 1 4 5 5 7 6 6 8 8 7 7 6 6 6 7 6 6 8 10 12 11 8 9 11 12 12 13 15 19 21 22 21
18 19 19 20 20 20 21 21 21 21 21 21 20 20 20 20 19 18 18 17 17 17 16 16 16 15 14 13 11 10 10 10 9 8 9 11 13 14 15 16 15 13 12 11 10 10 9 10 9 6 4 2 2 2 2 1 1 4 6 6 7 7 6 8 9 8 7 6 6 6 6 5 6 7 8 12 12 9 9 10 11 12 13 17 21 22 22 21
18 18 19 19 20 20 21 21 21 21 21 21 21 21 21 20 20 19 19 18 18 17 16 16 16 15 14 13 12 11 11 11 10 10 10 11 13 14 15 15 14 13 13 12 11 10 9 10 10 7 4 4 2 2 2 1 2 3 5 6 7 7 7 9 9 8 7 6 6 5 6 6 6 7 8 10 11 12 11 10 12 13 15 19 22 22 21 21
17 17 18 19 19 20 20 21 21 21 21 21 21 21 21 21 20 20 19 19 18 17 17 16 16 15 14 13 12 11 12 11 11 11 12 12 13 14 15 15 15 14 13 13 12 11 10 10 11 9 5 5 3 2 1 1 3 3 5 6 7 8 9 9 9 7 7 6 6 6 7 6 6 7 7 9 11 12 12 12 14 15 17 20 21 21 21 21
17 17 18 18 19 20 20 20 20 20 20 20 20 20 20 20 20 20 20 19 19 18 18 17 17 16 15 14 13 12 12 11 11 11 13 14 14 15 15 15 16 14 13 13 12 12 11 10 11 9 6 5 4 3 2 2 4 4 5 6 7 9 9 8 8 8 7 6 6 6 7 6 6 7 7 8 11 12 13 14 16 17 19 21 21 21 21 21
17 17 18 18 19 20 20 20 20 20 20 20 19 19 19 19 19 19 19 19 18 18 17 17 17 16 15 15 14 14 12 11 11 12 14 15 15 16 16 16 16 15 14 13 13 13 12 10 9 8 6 5 5 3 3 4 5 5 6 7 7 8 9 8 8 9 7 7 7 6 6 5 5 6 6 8 11 13 14 15 18 19 20 21 22 22 21 21
17 17 18 19 19 20 20 20 20 19 19 19 19 19 18 18 18 18 17 17 17 17 17 17 16 16 16 16 17 16 13 11 13 13 14 15 15 16 16 16 16 15 15 13 13 14 12 10 9 8 7 6 4 3 4 5 5 5 6 7 8 8 8 7 8 8 8 8 7 6 6 5 4 5 6 8 11 13 14 16 19 20 20 22 22 22 21 21
17 18 18 19 19 20 20 20 19 19 19 18 18 18 17 17 17 17 17 17 16 16 16 16 16 16 15 16 17 17 14 12 13 14 15 15 14 15 15 16 16 15 14 13 12 13 13 10 8 9 8 6 5 5 5 5 5 5 5 5 8 9 8 8 8 8 8 9 8 7 6 5 4 4 5 8 11 13 15 17 19 19 20 22 22 22 22 21
17 18 18 19 19 19 19 19 19 19 18 18 17 17 17 16 16 16 16 16 16 15 15 15 15 15 15 17 16 16 16 14 15 16 16 15 14 14 15 15 16 15 14 12 11 12 13 12 9 9 9 8 7 6 6 5 4 5 5 5 6 8 8 9 8 7 8 9 9 8 7 6 5 4 5 8 11 14 16 18 20 20 21 22 22 22 21 21
17 18 18 19 19 19 19 18 18 18 17 17 16 16 16 15 15 15 15 15 14 14 14 14 14 14 14 16 16 16 17 16 16 18 17 15 15 14 15 16 16 15 14 13 12 11 12 12 11 10 9 9 8 6 6 5 4 4 5 5 6 7 8 10 8 7 8 9 10 9 7 7 5 4 5 8 11 14 16 18 20 20 21 22 22 22 21 21
17 18 18 19 19 19 18 18 17 17 16 16 15 15 14 14 14 14 14 14 13 13 13 13 14 14 13 15 16 16 18 17 17 18 18 17 16 15 14 15 15 15 14 14 12 11 11 11 11 10 10 9 7 6 5 5 4 4 4 5 7 7 9 10 9 8 7 8 10 10 8 8 6 4 6 9 12 15 17 18 20 21 22 23 23 23 21 20
17 18 18 18 18 18 17 17 16 15 15 14 13 13 13 13 12 12 12 12 12 12 12 12 12 13 13 14 15 16 18 19 17 18 19 19 17 15 14 14 15 15 14 14 13 11 11 10 10 10 9 8 7 5 5 5 4 4 4 6 7 8 9 10 10 9 8 9 10 10 8 9 7 4 7 9 13 15 17 18 20 21 22 23 23 23 21 20
17 17 17 17 17 17 16 15 14 14 13 12 11 11 11 11 11 10 10 11 10 10 11 11 11 12 13 14 14 15 17 18 18 18 19 19 18 17 15 14 14 14 13 13 13 12 12 11 10 9 9 8 8 7 6 5 3 4 5 7 9 9 9 10 11 9 8 9 10 10 9 9 8 3 6 9 13 15 16 18 20 21 22 23 23 23 22 20
16 16 17 17 16 16 15 14 13 12 10 9 8 8 8 8 8 9 9 10 10 9 10 11 12 11 12 14 14 15 15 17 18 18 18 19 18 17 16 14 13 14 13 12 12 13 12 11 10 10 10 10 9 8 8 6 5 6 7 9 10 11 11 10 10 9 8 9 9 9 8 8 8 4 5 10 13 14 16 19 20 21 22 23 23 23 22 21
16 16 16 16 16 15 14 13 11 10 8 7 6 6 6 6 7 8 9 10 11 11 9 10 12 11 11 12 13 13 14 16 17 18 19 19 18 17 16 14 14 14 13 12 12 12 12 11 12 11 11 10 9 8 8 8 8 9 9 9 10 11 11 10 9 9 8 8 9 8 8 8 8 5 3 9 13 14 16 18 20 21 22 24 24 23 23 22
16 16 16 16 15 14 13 11 10 8 7 6 6 6 6 7 6 7 9 10 12 12 11 11 12 13 12 13 13 13 14 16 17 17 19 19 18 16 16 15 14 14 14 13 11 11 12 12 13 13 12 9 7 7 7 8 8 9 8 9 11 10 10 10 8 8 8 8 8 8 8 8 7 4 2 7 12 14 17 19 20 21 23 23 23 23 23 23
16 16 16 15 14 13 12 11 9 8 6 6 6 6 6 7 6 7 7 8 10 11 12 12 13 14 14 14 15 14 14 16 16 17 19 19 18 16 16 15 14 14 14 14 12 11 13 13 14 13 10 9 8 8 8 8 8 8 8 9 10 9 9 9 8 8 9 8 8 7 7 8 7 4 2 5 10 13 16 19 20 21 22 23 23 23 24 23
16 16 16 14 14 12 11 9 7 6 5 4 5 5 6 6 6 6 6 7 9 9 10 11 12 14 14 14 15 15 16 17 17 18 20 19 18 17 16 16 15 14 14 14 13 13 13 12 13 11 9 9 9 8 8 8 8 8 8 9 11 10 8 9 9 9 9 7 7 7 7 8 7 5 2 3 8 12 14 17 20 20 21 23 24 24 24 24
15 16 15 14 13 11 10 8 6 4 4 4 4 5 5 6 6 6 6 6 7 8 8 10 11 12 13 12 13 15 16 16 17 18 20 20 18 17 16 16 15 14 14 15 15 14 13 11 9 9 10 10 9 8 8 8 8 8 9 9 10 10 8 8 9 9 9 8 7 6 8 8 6 4 2 3 7 11 14 16 19 20 20 22 23 25 25 25
15 15 14 13 12 10 9 7 4 3 3 3 3 4 5 5 6 6 5 5 6 7 8 8 9 11 11 10 12 14 14 15 17 18 20 20 19 16 16 16 15 15 15 15 15 14 14 12 10 9 9 10 9 9 8 8 7 8 7 8 10 10 8 6 7 8 8 9 7 6 7 8 6 4 3 3 7 11 15 16 18 20 21 21 22 24 26 25
15 14 13 12 11 9 7 5 4 3 3 2 2 3 3 4 5 5 4 3 4 6 7 7 8 10 11 10 11 12 12 14 16 18 20 20 19 17 16 16 15 15 15 14 14 14 14 12 11 11 11 11 10 9 8 7 7 7 6 6 8 9 7 5 5 6 7 7 7 6 5 6 7 5 3 2 6 12 16 16 18 21 21 22 22 23 25 25
14 14 12 11 11 8 6 4 3 2 1 1 1 1 2 4 5 4 3 2 3 5 6 7 7 9 10 10 12 11 10 12 14 16 19 20 20 17 16 16 15 15 15 13 14 14 14 13 13 13 12 11 10 9 8 6 6 8 7 6 7 7 5 4 4 6 6 7 7 7 4 5 7 5 3 1 5 11 16 18 19 21 22 23 24 23 23 24
14 13 12 11 10 7 5 3 2 1 0 1 1 1 1 3 4 3 2 2 3 4 6 7 7 8 9 10 13 11 9 12 13 15 19 20 19 17 16 17 16 15 15 14 15 14 13 13 13 13 12 11 11 10 8 6 7 9 7 6 6 5 3 3 4 5 6 7 8 7 4 4 6 4 2 0 3 9 16 20 20 21 23 24 24 24 23 23
13 13 11 9 8 6 3 2 1 0 1 2 1 1 2 3 2 2 2 2 3 4 5 7 6 8 8 9 12 10 8 10 11 13 17 19 19 17 16 17 16 15 15 15 16 15 14 13 13 13 12 12 12 11 9 8 8 9 6 4 4 3 2 2 3 4 5 6 7 6 3 3 5 3 1 2 3 7 14 19 21 21 23 25 25 24 23 22
13 12 10 8 6 4 2 1 1 1 2 2 1 1 2 2 2 2 2 2 3 3 5 6 6 7 8 9 10 9 8 9 10 12 15 16 19 17 15 16 15 14 14 14 15 15 15 14 13 13 13 13 12 10 9 9 10 8 5 4 4 3 3 3 3 4 5 6 6 5 2 2 5 4 2 3 4 7 10 16 21 22 24 26 26 24 23 23
12 11 9 6 4 3 2 2 2 2 2 1 1 2 2 2 3 3 3 2 2 3 4 6 6 6 8 8 10 9 8 8 9 11 14 14 17 17 15 15 14 13 13 14 14 14 14 14 14 14 14 13 11 10 9 9 8 7 6 5 4 4 4 4 4 4 4 5 6 5 3 2 4 5 4 6 6 6 9 14 22 25 24 26 26 25 24 24
12 10 7 4 3 1 2 3 3 3 2 2 2 3 2 2 3 3 2 2 1 3 4 5 6 7 7 7 8 9 8 9 9 10 12 13 15 17 16 16 15 13 12 14 14 13 14 15 14 14 14 13 12 11 10 8 7 6 6 5 4 4 4 4 4 4 4 5 6 4 3 3 5 6 6 6 7 7 9 12 21 27 26 26 27 25 25 24
11 9 5 2 1 2 2 3 3 3 3 3 4 3 4 4 3 2 1 1 1 3 3 5 6 6 8 8 8 9 8 9 10 9 11 12 14 16 16 16 15 14 12 12 12 12 12 14 13 13 13 13 12 11 10 9 8 7 7 7 5 3 3 5 5 4 5 6 5 4 3 5 6 7 5 6 7 8 10 12 21 29 29 27 26 26 25 24
10 7 4 2 1 2 2 3 3 3 4 4 4 3 4 4 2 2 2 1 2 2 2 4 5 5 7 8 9 9 9 9 10 10 10 11 13 15 15 15 16 14 13 12 11 11 11 12 13 13 12 11 12 12 11 9 8 8 8 7 7 6 5 6 5 4 5 5 5 4 4 5 6 6 5 6 7 8 10 12 21 29 29 26 25 25 25 24
8 5 3 2 2 2 3 3 3 3 4 4 5 4 4 3 2 1 1 1 2 2 1 3 5 5 5 7 8 8 9 9 9 10 11 11 13 14 14 15 16 15 14 13 12 11 11 12 13 13 11 11 11 11 10 8 8 8 7 7 9 8 6 6 5 4 4 4 5 5 5 5 6 6 6 7 4 6 10 13 20 26 27 25 24 24 24 24
5 3 3 2 2 2 3 4 4 4 4 5 5 5 4 2 2 2 1 1 1 2 2 3 4 5 5 6 6 7 8 8 8 9 10 11 12 14 14 14 15 15 15 14 13 11 11 12 13 11 11 12 13 12 11 9 9 8 8 9 10 8 5 5 5 4 3 4 5 5 6 7 5 4 5 6 1 5 9 14 19 22 25 24 23 23 24 24
4 3 3 2 2 2 3 5 5 4 3 4 4 3 3 2 2 3 2 1 1 2 3 4 4 5 5 6 6 7 7 7 8 9 10 10 11 13 14 13 13 16 16 15 13 12 11 12 13 12 12 13 12 12 12 11 9 8 9 10 9 7 6 5 5 4 3 4 5 5 5 6 4 3 4 4 1 4 8 14 19 20 22 23 22 22 23 24
3 2 2 2 2 2 3 5 4 3 3 4 3 2 2 2 2 3 2 1 2 3 4 4 3 4 5 6 6 7 8 7 8 8 9 10 10 11 13 12 12 15 16 15 13 12 12 12 12 13 13 12 10 10 10 10 10 10 11 9 8 7 7 5 4 4 3 4 6 6 6 5 3 3 3 2 1 4 7 12 19 20 21 22 22 22 23 23
1 1 2 2 1 2 3 4 3 2 2 3 2 2 2 2 2 1 1 1 2 3 3 3 3 4 4 5 5 7 8 8 8 8 8 9 9 10 11 11 11 13 15 15 14 12 11 12 12 12 12 10 9 9 9 8 8 9 10 9 8 7 7 6 5 4 3 4 5 6 6 4 3 3 2 2 3 5 6 10 18 21 21 22 22 23 23 23
1 0 1 1 1 2 2 3 2 2 2 2 2 2 2 2 2 2 2 2 3 3 3 3 3 3 4 4 4 5 7 7 8 8 8 9 9 9 10 10 10 10 12 14 14 13 12 12 12 12 11 9 9 10 10 8 7 7 9 10 9 8 7 6 5 4 4 3 4 4 5 5 4 2 2 2 3 5 6 9 16 20 21 22 22 22 23 23
1 1 1 1 1 2 2 2 3 3 3 2 2 2 1 1 2 2 2 2 3 2 2 3 4 4 4 3 3 4 4 5 8 9 8 9 9 8 9 10 9 9 10 11 13 14 14 13 13 12 11 11 11 11 10 10 9 9 9 10 9 9 8 6 5 5 4 3 4 4 4 6 5 2 2 2 2 5 6 8 13 18 20 21 21 22 23 23
0 1 2 1 2 3 2 3 4 3 4 3 2 2 2 1 2 2 2 2 3 3 2 3 3 3 3 3 2 3 3 4 6 8 8 9 9 9 9 9 10 10 10 10 11 13 13 13 13 13 12 12 13 12 10 11 10 9 10 10 9 9 9 8 7 6 5 4 5 4 4 6 5 3 2 2 3 5 7 8 11 16 20 21 21 22 22 23
1 2 2 2 3 3 2 4 4 3 4 4 4 4 4 3 2 2 3 2 3 3 3 3 3 3 3 3 2 2 3 4 5 7 7 8 8 10 11 11 11 11 11 11 11 12 13 13 13 13 12 11 11 10 9 9 8 9 9 9 9 9 9 10 10 8 6 6 5 4 4 6 5 4 3 2 3 5 8 9 11 14 18 21 21 22 22 23
2 2 2 2 3 3 3 5 5 4 5 4 4 4 4 3 3 3 3 3 4 4 4 4 4 4 4 3 2 2 2 4 5 5 5 5 6 8 9 11 11 12 12 12 12 13 13 13 13 11 10 9 8 7 7 7 8 9 9 9 9 9 8 9 10 8 7 7 6 3 5 6 6 5 3 2 3 5 8 10 11 12 15 19 21 22 23 23
2 2 2 3 3 3 3 5 6 6 6 4 4 5 4 4 4 3 3 4 4 4 5 5 5 5 4 3 3 2 2 4 5 4 4 4 5 5 6 8 10 11 11 11 13 14 13 13 14 12 11 10 8 8 9 9 9 9 9 8 9 9 9 10 9 8 8 8 6 5 6 7 6 5 4 3 3 5 7 9 11 12 14 16 19 21 22 23
3 3 3 3 3 3 3 5 5 6 6 5 5 5 5 5 5 4 3 3 4 4 4 5 5 5 4 3 3 2 2 3 3 4 3 3 4 4 4 5 7 10 11 12 14 13 12 13 14 14 13 12 11 11 11 10 9 9 9 8 8 9 9 9 9 9 9 8 8 8 7 6 6 5 5 4 4 5 6 8 10 12 14 15 17 19 21 21
3 3 4 3 4 3 3 4 4 5 7 6 6 6 6 6 6 5 4 4 4 4 4 5 5 5 5 5 4 4 3 3 3 3 3 4 4 4 4 4 4 6 10 14 14 12 11 12 14 14 14 13 11 11 10 9 10 10 9 8 7 8 8 9 10 11 9 7 8 9 6 6 7 5 5 6 5 6 6 7 10 13 14 15 17 18 20 20
4 4 4 4 4 4 4 4 5 5 7 7 7 7 6 6 6 6 6 6 5 3 3 4 4 4 5 6 6 5 4 4 4 4 4 4 4 3 3 4 3 2 6 11 12 11 11 12 13 13 14 13 12 10 9 9 10 10 8 7 7 8 9 9 11 11 10 9 9 8 7 8 8 6 6 6 6 7 6 7 10 12 13 14 16 17 19 20
5 5 6 5 5 5 6 6 6 5 6 7 7 7 7 7 7 7 8 7 6 4 3 3 4 4 5 6 6 5 5 5 5 5 5 4 4 4 3 3 3 1 3 8 9 9 11 11 12 12 12 12 12 10 10 10 9 8 8 8 7 9 10 10 10 10 10 11 10 9 9 10 8 6 6 6 6 6 5 5 8 11 12 13 15 17 19 21
6 6 7 6 6 6 6 6 6 5 5 6 6 7 8 7 7 8 8 7 6 6 4 4 6 6 5 5 6 6 7 7 7 7 6 4 4 5 4 4 4 2 2 7 8 9 10 11 10 10 11 11 11 9 9 10 8 7 8 8 7 7 8 9 9 9 10 11 10 8 8 9 7 6 6 5 5 6 5 5 7 11 12 12 14 16 18 20
7 7 7 7 7 7 7 7 6 6 6 6 7 8 8 8 7 8 8 8 6 6 6 6 7 7 7 6 6 8 8 8 9 10 9 7 7 7 6 6 6 4 3 6 8 8 9 10 9 9 10 11 11 9 9 10 8 6 7 7 7 6 7 8 8 8 9 9 8 7 7 7 7 5 5 5 5 6 6 7 8 9 11 12 14 15 17 19
8 8 8 7 8 8 8 8 7 7 8 8 8 8 9 9 9 8 8 8 7 6 6 7 7 7 8 7 8 9 10 11 12 13 11 11 10 10 10 9 9 7 6 6 7 7 8 9 9 10 10 12 11 10 9 9 8 8 9 9 8 7 8 8 7 8 8 8 8 8 8 8 7 6 5 5 5 5 6 7 7 9 11 12 14 15 16 17
Wind_Direction
291 290 290 289 288 286 285 284 283 282 281 281 280 279 278 278 277 277 276 275 276 276 276 277 278 280 280 282 282 281 280 277 273 263 252 248 241 231 215 205 197 191 187 179 173 169 168 175 174 160 144 106 49 50 51 30 28 18 10 3 353 352 339 332 311 296 295 294 279 256 254 251 252 243 234 232 222 212 202 204 206 203 206 198 181 172 170 168
291 291 291 290 289 287 286 285 284 283 282 281 280 279 278 277 277 277 276 275 275 274 274 274 276 277 278 280 280 280 277 271 268 259 249 244 232 219 209 200 194 190 186 181 181 179 178 182 178 170 160 113 55 51 45 23 23 15 6 4 353 341 330 323 311 306 300 296 285 265 261 252 251 240 232 234 214 202 197 200 205 197 195 192 178 174 172 169
290 291 290 290 290 289 287 286 285 283 282 281 280 279 278 277 276 276 275 274 273 273 272 272 273 275 276 277 278 278 274 269 264 258 249 235 220 210 203 198 194 192 191 189 189 188 187 182 174 169 170 130 59 52 36 20 20 17 9 359 342 329 326 313 302 299 292 296 300 284 268 254 251 237 230 231 211 206 203 199 202 195 190 185 178 176 173 170
289 289 289 289 289 288 288 286 285 284 282 281 280 278 277 276 276 274 274 273 272 272 271 271 271 272 273 273 276 274 269 268 256 251 245 223 212 204 198 197 194 195 197 195 191 189 187 178 172 171 177 168 55 47 30 21 28 25 10 353 343 348 338 311 303 303 299 300 300 292 277 265 255 237 230 225 214 217 214 205 202 195 189 184 179 175 172 171
288 288 288 288 288 287 287 286 285 284 282 281 280 278 276 276 275 273 272 271 270 270 270 269 269 269 270 270 270 267 263 259 247 245 238 216 206 200 196 195 193 196 198 193 190 186 184 179 176 179 187 192 108 27 16 358 29 20 349 331 332 346 339 313 313 313 308 305 300 296 284 271 257 237 228 223 218 222 220 212 205 196 189 184 179 173 171 173
289 288 288 287 287 287 286 285 284 283 282 280 279 277 275 274 273 272 270 270 269 268 268 268 267 267 267 266 262 258 253 248 245 243 230 210 202 197 195 192 191 196 195 190 191 188 186 183 182 192 199 217 228 263 3 358 17 6 350 335 323 323 323 313 316 316 312 308 299 295 287 272 254 243 230 222 219 220 220 212 203 196 190 182 175 171 172 173
290 289 288 288 288 287 286 285 284 283 281 279 278 277 275 273 272 271 269 268 267 267 267 266 266 264 263 261 253 252 250 247 245 236 222 208 201 196 192 190 190 195 193 191 194 193 190 188 195 203 204 225 234 249 322 360 333 351 350 345 330 320 312 309 313 313 309 301 295 299 297 271 248 246 231 223 218 213 215 208 199 193 184 176 171 170 172 173
293 291 290 289 289 288 287 286 285 283 281 279 278 276 274 272 270 269 267 266 266 265 265 264 263 260 258 253 248 252 248 243 242 233 220 207 200 195 189 189 192 195 194 195 196 196 195 194 201 205 208 230 236 252 292 353 332 334 334 336 342 334 319 316 318 314 309 304 301 304 297 273 251 245 232 225 218 210 208 202 196 189 180 175 172 172 173 173
295 294 293 292 291 290 289 287 286 284 282 280 277 275 273 271 268 266 265 264 264 264 263 262 259 256 253 248 245 248 243 240 242 230 214 203 199 195 191 192 195 196 197 199 199 199 199 200 205 205 212 231 237 258 260 323 327 317 312 326 342 334 328 331 330 324 322 320 315 306 294 278 255 245 238 226 215 208 203 196 193 186 180 177 175 175 174 173
299 298 297 295 294 293 291 289 287 285 283 280 278 275 273 270 267 265 263 262 262 261 261 258 256 252 248 244 239 238 240 242 238 221 207 201 197 197 196 196 196 197 198 200 202 203 204 206 208 208 220 236 238 255 241 275 319 317 312 323 328 324 331 341 343 342 342 334 325 313 300 284 250 239 236 222 210 202 195 192 190 184 181 179 178 177 175 174
302 301 300 298 297 295 293 291 289 286 284 281 278 275 272 269 266 264 262 261 260 259 257 255 252 249 244 240 233 232 240 239 226 212 203 199 197 198 199 198 198 198 199 201 206 209 209 210 210 212 225 239 243 249 243 267 306 316 322 327 325 328 336 345 348 348 354 346 334 327 313 290 249 237 228 211 204 198 191 188 187 184 182 180 179 177 175 174
304 304 302 300 299 297 295 292 290 287 284 281 278 274 271 268 265 263 261 259 259 257 255 251 248 245 242 239 232 230 237 232 217 207 202 200 201 202 201 200 201 201 200 203 209 212 212 213 213 218 228 240 250 255 258 277 298 308 324 330 332 345 348 350 355 354 2 357 344 345 332 304 257 238 220 204 201 196 189 185 185 185 182 180 179 177 175 175
306 306 305 303 301 299 297 294 291 288 285 281 277 274 270 267 264 261 259 257 257 255 252 248 244 243 240 236 231 229 232 225 212 205 203 204 205 206 205 203 204 205 205 207 212 215 215 215 216 225 236 248 255 263 275 286 296 304 319 328 335 351 354 354 359 1 6 1 353 354 345 322 284 242 212 203 199 192 187 185 186 184 182 180 179 178 177 177
308 308 307 306 305 303 299 295 292 289 286 282 277 272 268 265 262 259 257 256 255 253 250 245 240 239 236 233 231 228 225 219 210 206 205 206 206 207 208 207 208 211 211 211 213 215 216 218 222 230 239 244 252 265 281 290 293 300 314 329 337 347 348 347 354 2 5 1 358 356 347 327 300 256 218 207 197 190 187 186 186 185 182 181 180 179 178 178
309 310 310 309 308 306 302 297 293 290 286 281 275 270 266 263 261 257 255 253 252 250 248 243 237 236 235 234 231 224 218 214 211 210 209 208 206 208 210 209 211 213 214 214 213 216 217 217 222 230 237 244 254 265 275 287 292 299 311 324 336 339 338 342 348 355 360 359 359 357 346 329 305 258 231 210 195 190 187 186 187 186 183 181 180 179 179 179
310 311 311 311 310 308 304 299 295 292 287 281 275 268 264 260 257 254 251 249 248 246 243 239 234 231 232 232 226 219 216 214 214 212 211 211 209 209 207 208 211 213 216 216 214 217 217 217 221 227 235 243 246 252 270 284 294 307 308 314 327 332 333 341 344 346 356 357 355 354 344 333 319 257 234 209 193 189 186 184 186 186 183 181 180 180 180 179
311 312 313 313 312 310 307 302 298 294 288 282 275 267 262 257 253 250 247 245 242 240 238 235 232 230 231 229 222 218 217 215 215 212 211 212 211 209 206 209 212 211 215 217 217 218 217 219 222 225 230 233 227 232 264 275 285 305 311 312 318 324 326 333 337 341 352 352 347 349 343 335 329 260 226 206 192 190 185 182 185 186 183 181 180 181 181 179
313 314 315 315 314 312 310 306 301 296 290 283 275 266 258 253 247 244 241 238 235 234 237 234 228 228 229 225 218 216 216 215 214 212 210 210 210 210 209 213 213 209 211 217 219 217 218 222 223 227 230 227 219 217 232 248 274 295 305 314 316 318 318 323 329 333 346 349 345 348 345 338 337 293 220 203 192 190 186 183 185 185 184 182 182 183 182 180
317 317 318 318 316 314 313 310 303 297 291 282 274 261 250 246 242 240 235 233 230 229 234 229 220 223 224 219 216 217 216 213 212 210 208 207 207 209 211 214 212 206 206 213 216 212 214 221 223 226 225 222 219 215 224 244 277 291 299 309 311 313 313 318 324 326 340 346 342 346 346 342 344 325 222 199 192 191 187 183 185 185 185 185 184 185 184 182
319 319 320 321 319 317 316 313 306 299 291 277 265 251 243 242 242 242 235 231 229 226 229 223 218 226 225 215 214 218 215 208 208 208 205 204 204 205 210 212 210 207 206 210 214 212 210 218 224 222 219 220 222 223 236 257 277 288 297 305 305 305 309 319 325 324 336 340 333 340 347 348 350 336 229 197 192 191 187 183 184 185 186 187 187 187 186 184
320 320 321 321 319 319 318 314 308 300 290 272 258 251 249 245 241 243 236 234 235 231 232 229 225 231 230 221 218 218 214 209 207 206 204 203 201 203 210 210 208 209 208 206 209 210 209 217 223 219 217 225 228 227 240 259 270 279 287 298 303 301 306 319 327 327 335 335 326 335 350 350 347 339 256 200 193 190 187 185 184 185 186 189 189 189 188 186
320 321 322 322 319 319 318 315 309 300 289 272 259 254 254 246 239 240 235 237 240 232 230 232 231 234 231 226 224 218 213 210 207 206 204 202 202 205 209 209 211 210 206 204 205 208 213 221 223 217 217 227 232 231 238 252 261 272 281 289 296 302 311 321 332 336 334 330 320 330 349 344 338 337 299 210 196 190 188 187 186 186 187 190 190 189 189 187
322 322 324 323 321 321 319 317 312 302 290 271 256 249 250 245 239 239 234 235 239 230 226 226 226 229 229 226 221 212 210 210 207 206 205 202 204 207 206 208 211 206 204 207 205 205 211 218 219 214 212 220 230 234 239 255 263 268 276 283 288 298 308 312 322 330 329 324 316 326 340 336 336 337 304 217 200 196 192 189 189 189 189 190 190 190 189 189
324 325 326 325 324 322 320 319 313 302 292 272 255 249 251 245 236 232 227 227 233 232 224 217 216 221 224 222 212 205 207 210 207 205 204 201 201 205 207 208 207 203 205 208 208 210 214 212 208 203 201 210 228 238 242 256 267 269 269 271 281 291 296 303 313 321 324 322 316 328 337 332 333 330 288 217 205 205 198 193 193 193 190 188 188 189 190 190
327 328 328 327 327 323 320 320 310 301 298 274 260 259 253 240 227 219 221 226 233 234 222 211 214 217 214 209 204 202 204 209 208 204 202 201 200 202 207 206 204 205 207 209 211 218 221 216 209 210 209 213 228 242 242 245 267 281 267 257 269 284 295 309 313 316 322 320 314 329 337 329 330 330 298 226 210 206 198 195 197 195 192 189 186 187 189 191
330 330 331 329 328 325 320 318 311 308 301 272 260 260 243 224 209 205 214 226 231 230 215 207 213 210 204 202 201 198 200 210 209 202 201 202 201 201 205 206 205 206 206 208 214 218 218 211 209 219 224 224 230 240 236 232 261 282 273 258 265 279 295 305 303 309 316 314 315 324 327 323 328 328 313 243 208 203 196 196 198 194 192 191 187 184 186 189
333 332 333 330 330 328 318 316 314 308 299 270 243 248 232 200 190 199 211 223 230 222 207 208 210 201 202 203 194 189 200 207 203 201 201 201 202 202 205 207 206 207 205 207 215 216 211 209 212 219 224 226 227 233 232 227 249 271 281 279 271 280 293 293 300 307 304 311 319 318 318 326 327 323 317 254 198 202 200 198 196 193 192 192 189 185 184 187
335 334 334 331 333 331 317 313 309 293 256 112 121 187 189 175 182 201 202 201 221 215 201 205 204 196 201 198 190 193 205 200 197 204 203 199 202 203 205 208 206 207 208 205 212 215 208 210 215 216 220 222 221 228 230 228 249 270 287 290 280 289 295 292 308 308 307 318 319 310 311 328 327 325 325 249 194 203 203 200 196 193 194 192 190 187 186 187
335 334 334 333 337 336 323 307 290 140 126 112 98 128 152 163 179 186 178 180 200 206 196 194 196 197 196 191 194 204 207 199 201 204 199 198 203 203 206 209 205 208 213 210 215 218 213 216 219 216 219 219 221 229 228 229 250 268 285 295 296 303 303 315 314 311 320 321 313 306 301 323 328 322 252 213 210 205 202 200 198 196 194 192 191 190 189 188
336 334 333 335 341 345 344 302 172 137 124 102 88 123 131 145 161 150 157 167 183 200 192 187 195 196 187 185 198 206 202 201 202 196 195 199 203 206 209 209 206 208 216 219 222 222 220 223 225 220 217 218 223 231 231 232 242 254 272 279 286 295 301 320 317 321 330 315 310 312 293 314 330 317 254 234 226 204 199 201 200 198 195 192 192 192 191 190
336 334 332 337 347 0 51 101 130 131 119 89 89 117 111 113 121 123 148 162 166 188 186 187 194 189 182 188 200 202 195 199 197 191 197 200 201 207 210 209 209 211 219 226 225 225 226 225 223 219 217 217 226 237 242 244 243 246 260 258 261 284 298 316 319 328 327 305 311 320 312 306 316 313 285 263 255 217 205 205 200 197 195 193 193 194 193 192
337 335 333 339 355 32 107 114 106 97 95 81 78 95 106 112 104 109 148 169 166 189 191 190 190 186 183 189 201 202 194 197 198 191 196 199 200 205 208 209 208 209 219 224 223 227 228 223 219 220 219 216 223 239 246 249 248 244 243 239 247 278 296 303 307 316 304 297 309 317 320 300 287 302 293 265 262 233 213 208 198 195 195 193 193 194 193 192
338 340 346 354 38 88 122 124 102 85 86 79 72 81 95 109 112 105 120 136 168 184 187 183 183 182 181 186 201 204 196 199 201 195 195 198 200 206 209 209 206 207 215 218 220 226 227 224 219 217 220 216 216 227 235 238 238 233 228 226 231 247 283 287 290 308 305 304 316 315 308 304 297 307 301 267 258 230 212 205 196 193 194 194 192 192 192 192
341 350 9 29 95 112 127 126 111 98 87 74 73 81 89 101 111 84 79 130 176 172 169 174 174 173 180 191 202 199 196 203 199 193 196 197 200 208 212 211 208 209 214 216 218 217 218 222 215 211 217 217 215 219 222 224 229 234 231 228 233 234 248 265 269 293 301 304 320 321 308 303 302 305 305 288 261 217 201 196 188 189 191 192 190 190 191 192
344 2 28 52 102 126 141 140 126 107 90 76 75 81 90 104 108 84 99 164 166 156 159 164 159 161 180 197 205 199 196 204 198 192 198 199 202 207 208 209 208 207 210 215 219 215 217 223 218 214 214 211 217 221 216 218 234 241 231 226 238 238 239 259 262 271 293 301 303 303 299 299 298 301 317 318 277 193 187 185 180 184 188 188 189 190 191 193
351 19 38 63 101 120 138 148 140 116 97 84 75 75 90 108 113 109 123 143 149 154 148 147 151 159 179 192 203 202 196 200 199 196 203 206 208 209 208 209 208 205 207 211 216 215 217 224 222 221 220 214 218 223 219 221 232 238 230 229 238 236 231 251 269 285 312 311 299 299 304 313 317 313 326 338 336 169 178 181 180 183 186 186 189 192 192 193
5 33 44 58 88 113 136 147 143 127 103 89 82 81 97 109 123 126 118 113 165 161 141 148 158 160 169 179 194 197 191 196 201 200 205 208 211 210 208 211 207 205 207 210 216 217 217 226 223 218 224 226 223 223 227 231 228 229 234 234 236 239 240 242 263 296 315 303 303 307 304 312 327 315 324 352 13 175 178 183 184 184 186 188 191 192 193 193
359 42 51 46 65 117 142 149 146 137 111 92 86 87 96 107 136 142 130 122 162 158 144 155 162 153 159 170 185 189 185 193 200 200 203 207 211 205 202 208 208 207 207 206 215 220 216 225 228 218 220 230 227 221 232 246 241 231 232 232 229 234 242 242 246 270 288 298 307 312 308 305 304 297 309 345 226 197 183 185 188 187 187 190 191 192 194 193
319 57 45 29 56 121 148 159 159 144 117 101 99 96 98 125 178 190 216 169 149 146 155 174 165 149 161 167 174 183 189 198 201 201 202 203 209 204 197 203 209 209 205 202 210 218 212 217 226 221 216 223 227 218 223 243 246 234 228 229 230 228 228 231 232 243 264 283 295 310 319 305 281 283 276 244 211 197 186 186 189 188 188 189 191 192 193 193
254 151 24 1 97 140 167 183 175 157 150 147 151 135 114 137 204 253 255 187 157 144 158 178 166 154 168 170 168 180 194 205 204 207 208 201 204 208 202 202 207 208 204 203 209 215 213 214 219 222 219 219 220 214 215 227 230 228 225 223 227 227 223 225 235 246 254 265 277 298 312 294 279 282 258 241 201 189 190 185 185 187 188 190 191 191 192 193
226 175 281 314 157 173 204 206 191 183 188 189 177 175 159 154 197 253 259 190 183 188 178 179 176 168 169 169 169 177 186 202 206 209 209 203 204 209 206 202 201 199 199 206 213 214 213 214 216 222 225 220 220 218 216 221 221 219 222 221 220 220 217 220 240 251 251 259 267 275 292 286 277 265 253 245 183 183 190 184 182 185 188 190 191 191 193 195
208 206 259 251 189 212 228 206 207 204 201 212 227 228 234 227 214 236 245 206 199 208 199 192 193 186 183 188 185 171 166 184 199 202 205 209 211 216 219 213 203 197 198 207 213 209 208 211 216 224 225 221 228 231 221 219 219 217 223 224 218 217 216 217 232 247 251 263 270 273 288 285 273 258 247 231 191 184 185 184 185 187 189 191 192 192 194 197
265 249 258 224 207 231 222 204 220 224 217 233 248 241 236 235 236 249 255 242 222 217 212 212 213 209 210 207 183 168 164 161 173 186 201 214 221 227 230 224 212 207 208 212 210 204 205 209 214 224 228 227 234 237 224 216 216 218 225 225 221 224 225 221 228 239 245 253 258 269 285 282 276 270 259 232 204 193 188 187 188 190 192 194 193 194 196 198
272 259 258 238 229 243 217 205 219 228 232 244 246 242 242 237 253 280 271 262 251 235 229 230 229 232 229 206 163 166 174 158 163 179 190 201 220 231 230 225 219 213 212 213 207 202 206 209 209 216 226 229 234 234 228 226 223 221 225 228 226 227 225 225 231 238 246 249 243 241 267 276 277 277 274 253 206 204 200 195 193 191 193 196 198 198 199 199
269 246 253 256 246 247 224 213 216 221 231 244 244 251 259 249 261 290 278 264 260 245 239 241 240 240 237 214 179 172 163 156 167 179 179 191 214 226 230 228 221 215 214 211 201 199 206 208 205 205 207 211 219 223 225 230 232 229 232 238 234 223 218 223 227 229 238 244 239 234 255 278 289 285 281 268 219 219 215 203 200 197 194 197 199 199 200 200
265 244 258 265 259 256 236 228 228 223 226 233 236 244 252 246 255 279 279 268 275 269 247 244 245 239 233 221 200 195 193 186 184 182 186 204 210 218 238 236 220 215 212 202 193 196 208 212 209 205 205 210 217 222 224 226 230 234 241 247 240 226 221 224 225 226 229 236 243 242 249 278 293 285 274 260 224 223 226 210 204 202 197 197 198 198 199 199
258 246 250 255 259 262 250 248 249 236 233 232 230 239 248 248 253 267 269 261 275 282 256 251 254 235 225 224 210 208 223 225 215 202 205 210 206 219 242 231 219 223 207 192 190 195 206 215 214 210 215 222 223 226 229 226 227 233 240 248 246 233 223 219 223 227 223 227 248 251 245 259 272 270 264 253 228 223 227 213 206 203 199 199 199 199 201 200
255 246 245 248 252 251 248 257 260 253 247 240 234 240 250 254 254 256 258 262 277 285 256 257 266 247 234 227 211 216 238 235 231 233 224 215 212 228 246 218 208 221 196 191 195 198 202 214 216 213 222 230 226 228 233 228 228 232 235 243 248 239 227 223 228 230 221 225 246 253 243 247 257 259 253 244 226 220 221 210 205 201 197 198 200 201 203 204
257 251 253 256 252 247 249 259 260 255 253 250 246 249 254 260 264 257 251 258 273 279 256 246 260 262 251 233 213 217 234 229 229 236 230 223 221 219 227 220 208 181 180 196 206 205 204 215 217 214 222 227 224 228 230 224 228 238 240 242 241 233 228 226 231 232 229 237 249 252 249 250 251 248 250 247 227 215 211 203 201 198 195 196 199 202 205 206
259 256 259 260 258 257 257 262 258 247 252 256 252 254 256 259 268 266 256 253 261 269 262 249 256 255 249 240 221 216 224 222 221 228 227 226 225 217 213 216 215 208 189 201 213 215 210 215 217 211 216 224 225 227 228 221 220 233 244 248 244 235 231 231 232 232 235 246 255 255 252 251 247 241 248 250 225 204 204 207 203 199 197 197 200 203 204 206
258 258 260 258 257 261 260 261 257 247 252 257 251 254 258 257 263 266 258 249 246 251 255 257 258 249 243 246 235 227 233 232 228 232 232 227 226 224 222 220 219 224 217 208 215 218 213 218 221 211 215 226 225 224 229 228 224 234 247 252 250 241 234 232 232 228 229 241 253 253 244 241 245 250 251 245 224 205 212 219 209 202 202 201 201 203 205 206
260 260 262 257 256 261 261 260 260 252 251 254 254 255 254 254 262 263 252 250 250 248 252 258 256 245 242 247 246 245 251 250 244 244 243 239 236 234 233 234 229 223 220 216 215 213 207 214 222 216 218 229 231 225 226 228 232 241 242 238 237 234 230 231 234 233 232 234 239 240 235 237 249 256 248 240 232 217 217 220 214 209 208 205 201 201 204 206